Home > Time Zones > World Clock > Weather > China > Hefei > Past weeks

Flag for China Weather past 2 weeks in Hefei, Anhui, China

Now
81 °F

Scattered clouds.


Feels Like: 81 °F
Forecast: 67 / 69 °F
Wind: 10 mph from Northeast

Location: Hefei Airport

Current Time: Sep 22, 2014 at 4:34:27 PM

Latest Report: Sep 22, 2014 at 4:00 PM


Visibility: N/A

Pressure: 29.92 "Hg

Humidity: 51%

Dew point: 61 °F

Location of HefeiLocation

Historic Weather in Hefei — Graph

°F

Hefei temperature yesterday

Maximum temperature yesterday: 81 °F (at 1:00 PM)
Minimum temperature yesterday: 61 °F (at 5:00 AM)
Average temperature yesterday: 71 °F

Past Weeks' High & Low Weather Summary

 TemperatureHumidityPressure
High88 °F (Sep 7, 5:00 PM)100% (Sep 8, 12:00 PM)30.07 "Hg (Sep 8, 12:00 PM)
Low59 °F (Sep 20, 6:00 AM)51% (Sep 22, 2:00 PM)29.74 "Hg (Sep 7, 3:00 PM)
Average71 °F89%29.90 "Hg
* Reported Sep 7 3:00 PM — Sep 22 3:00 PM, Hefei, Weather by CustomWeather, © 2014

Note: Actual official high and low records may vary slightly from our data, if they occured in-between our weather recording intervals... More about our weather records

Advertising

Hefei weather history for previous 24 hours

 ConditionsComfort  
Time TempWeatherWind HumidityBarometerVisibility
3:00 PM
Sep 22
79 °FScattered clouds.13 mph51%29.92 "HgN/A
2:00 PM81 °FScattered clouds.13 mph51%29.95 "HgN/A
1:00 PM79 °FPassing clouds.13 mph58%29.95 "HgN/A
12:00 PM77 °FPassing clouds.10 mph57%29.98 "HgN/A
11:00 AM77 °FPassing clouds.13 mph57%30.01 "HgN/A
10:00 AM73 °FSunny.10 mph69%30.04 "Hg10 mi
9:00 AM72 °FSunny.10 mph73%30.04 "Hg10 mi
8:00 AM68 °FScattered clouds.6 mph94%30.04 "Hg4 mi
7:00 AM64 °FFog.6 mph94%30.01 "Hg2 mi
6:00 AM63 °FFog.3 mph100%30.01 "Hg2 mi
5:00 AM63 °FFog.6 mph94%30.01 "Hg2 mi
4:00 AM63 °FFog.3 mph94%30.01 "Hg2 mi
3:00 AM63 °FClear.3 mph100%30.01 "Hg4 mi
2:00 AM63 °FClear.6 mph100%30.01 "Hg4 mi
1:00 AM64 °FClear.3 mph94%30.01 "Hg10 mi
12:00 AM66 °FClear.6 mph88%30.01 "Hg10 mi
11:00 PM
Sep 21
66 °FClear.6 mph88%30.01 "Hg10 mi
10:00 PM68 °FClear.6 mph88%30.01 "Hg10 mi
9:00 PM68 °FClear.6 mph88%30.01 "Hg10 mi
8:00 PM70 °FClear.6 mph83%29.98 "Hg10 mi
7:00 PM70 °FClear.3 mph83%29.95 "Hg10 mi
6:00 PM75 °FSunny.6 mph69%29.95 "Hg10 mi
5:00 PM79 °FPassing clouds.8 mph61%29.95 "HgN/A
4:00 PM81 °FScattered clouds.6 mph58%29.95 "HgN/A
Weather by CustomWeather, © 2014

See weather overviewHow to use our weather pages